Total_Precipitation_Accumulation
0.02 0.02 0.04 0.06 0.08 0.12 0.18 0.24 0.35 0.39 0.27 0.31 0.49 0.68 0.90 1.05 1.20 1.25 1.38 1.37 1.56 1.83 1.99 2.39 2.77 3.23 3.68 4.20 4.96 5.66 6.25 6.34 6.21 5.84 5.47 5.24 4.79 4.48 4.21 3.95 3.79 3.52 3.24 3.11
0.02 0.04 0.04 0.06 0.07 0.08 0.15 0.23 0.38 0.40 0.28 0.33 0.52 0.75 1.04 1.10 1.07 1.07 1.28 1.36 1.43 1.63 1.93 2.30 2.85 3.17 3.53 4.06 4.64 5.06 5.15 4.92 4.85 4.90 4.80 4.55 4.56 4.40 4.34 4.17 4.02 3.49 3.28 3.16
0.05 0.06 0.04 0.05 0.08 0.09 0.14 0.21 0.28 0.33 0.35 0.43 0.62 1.00 1.28 1.27 1.06 0.97 1.00 1.10 1.21 1.34 1.55 1.91 2.51 2.85 3.04 3.55 3.90 3.92 3.86 3.80 3.95 4.02 3.97 4.02 4.28 4.35 4.43 4.38 4.13 3.69 3.47 3.31
0.03 0.04 0.05 0.06 0.09 0.10 0.15 0.16 0.19 0.23 0.36 0.66 0.76 1.28 1.59 1.66 1.44 1.14 1.01 1.11 1.18 1.27 1.32 1.63 1.98 2.23 2.52 2.80 2.94 2.93 3.00 3.14 3.27 3.36 3.38 3.26 3.29 3.57 3.84 4.07 4.15 4.01 3.74 3.50
0.04 0.05 0.06 0.07 0.09 0.10 0.12 0.12 0.17 0.25 0.36 0.56 0.68 1.00 1.55 1.85 1.83 1.43 1.14 1.05 1.00 1.15 1.36 1.55 1.68 1.87 1.98 2.05 2.18 2.24 2.52 2.93 3.14 3.26 3.40 3.30 2.98 2.99 3.07 3.23 3.42 3.42 3.43 3.25
0.05 0.06 0.06 0.06 0.07 0.10 0.11 0.17 0.26 0.40 0.60 0.91 0.81 0.90 1.43 1.67 1.72 1.34 1.12 1.03 0.94 0.92 1.07 1.28 1.57 1.69 1.67 1.64 1.79 2.01 2.33 2.84 3.14 3.27 3.21 3.18 3.10 3.08 3.01 3.00 3.09 2.99 2.97 2.91
0.16 0.14 0.10 0.07 0.08 0.11 0.13 0.24 0.64 1.09 1.43 1.49 0.91 0.88 1.13 1.20 1.09 1.08 0.94 0.90 0.96 0.89 0.85 0.84 1.05 1.32 1.31 1.27 1.45 1.71 1.92 2.34 2.64 2.85 2.81 2.74 2.87 2.95 2.80 2.65 2.61 2.57 2.43 2.38
0.19 0.23 0.14 0.10 0.09 0.10 0.13 0.19 0.49 0.83 1.03 1.16 1.03 1.36 1.43 1.06 0.88 0.79 0.68 0.71 0.81 0.73 0.65 0.62 0.68 0.87 1.11 1.14 1.23 1.36 1.59 1.88 2.14 2.32 2.45 2.55 2.73 2.81 2.71 2.85 2.61 2.48 2.16 2.03
0.08 0.11 0.10 0.10 0.10 0.12 0.15 0.16 0.24 0.37 0.54 0.87 1.16 1.37 1.31 1.08 1.01 0.81 0.65 0.60 0.60 0.57 0.54 0.55 0.61 0.82 0.89 0.93 1.02 1.17 1.37 1.57 1.80 2.03 2.25 2.33 2.31 2.31 2.45 2.59 2.53 2.37 2.29 2.05
0.05 0.06 0.08 0.10 0.11 0.13 0.15 0.16 0.20 0.30 0.50 0.73 1.05 1.46 1.56 1.37 1.16 0.98 0.89 0.69 0.58 0.59 0.59 0.56 0.57 0.67 0.73 0.79 0.90 1.10 1.30 1.33 1.57 1.96 2.24 2.21 2.27 2.19 2.33 2.29 2.25 2.30 2.22 2.16
0.04 0.05 0.08 0.11 0.14 0.17 0.19 0.17 0.18 0.24 0.27 0.44 0.92 1.22 1.12 1.12 1.05 0.98 0.86 0.76 0.70 0.67 0.65 0.62 0.61 0.61 0.74 0.67 0.75 0.92 1.07 1.23 1.54 1.90 2.23 2.37 2.30 2.26 2.31 2.14 2.08 2.19 2.19 2.16
0.05 0.05 0.08 0.14 0.19 0.19 0.19 0.19 0.20 0.27 0.27 0.30 0.50 0.82 0.67 0.76 0.87 0.89 0.74 0.68 0.64 0.55 0.53 0.50 0.48 0.54 0.54 0.55 0.65 0.96 1.29 1.65 1.85 2.18 2.53 2.69 2.48 2.26 2.12 1.94 1.90 2.02 2.19 2.23
0.05 0.06 0.15 0.33 0.36 0.26 0.20 0.17 0.18 0.20 0.21 0.26 0.51 0.77 0.62 0.68 0.82 0.80 0.73 0.67 0.65 0.66 0.54 0.52 0.48 0.56 0.57 0.56 0.58 0.72 0.90 1.29 1.64 1.99 2.36 2.42 2.19 1.98 1.95 1.92 1.93 2.03 2.19 2.22
0.06 0.06 0.10 0.28 0.35 0.34 0.28 0.22 0.19 0.17 0.20 0.26 0.36 0.63 0.64 0.69 0.67 0.72 0.66 0.63 0.71 0.80 0.67 0.60 0.58 0.57 0.58 0.59 0.57 0.67 0.78 0.87 1.13 1.60 1.93 1.93 1.78 1.74 1.79 1.81 1.84 1.84 1.94 2.00
0.07 0.07 0.05 0.08 0.16 0.24 0.26 0.23 0.20 0.17 0.16 0.28 0.32 0.43 0.54 0.71 0.70 0.71 0.69 0.63 0.60 0.71 0.68 0.63 0.62 0.69 0.71 0.77 0.78 0.78 0.81 0.84 1.03 1.54 1.78 1.76 1.68 1.72 1.70 1.68 1.79 1.85 1.89 1.92
0.10 0.11 0.10 0.11 0.15 0.17 0.18 0.21 0.19 0.14 0.13 0.12 0.19 0.35 0.41 0.67 0.83 0.81 0.81 0.77 0.71 0.70 0.66 0.63 0.56 0.65 0.77 0.84 0.87 0.88 0.93 0.99 1.13 1.47 1.73 1.72 1.63 1.61 1.55 1.62 1.75 1.87 1.95 2.12
0.16 0.15 0.15 0.16 0.20 0.18 0.25 0.21 0.18 0.16 0.16 0.16 0.26 0.40 0.42 0.52 0.69 0.80 0.81 0.77 0.70 0.71 0.64 0.64 0.68 0.75 0.95 0.90 0.94 1.01 0.94 1.00 1.18 1.51 1.74 1.78 1.70 1.66 1.63 1.59 1.77 1.97 2.18 2.36
0.29 0.27 0.26 0.22 0.26 0.37 0.29 0.22 0.23 0.26 0.30 0.31 0.34 0.38 0.42 0.56 0.64 0.77 0.94 0.80 0.66 0.69 0.72 0.80 0.78 0.83 0.92 0.92 0.98 1.05 1.06 1.09 1.24 1.49 1.72 1.81 1.79 1.83 1.93 1.94 2.01 2.20 2.44 2.60
0.34 0.39 0.36 0.31 0.36 0.42 0.39 0.31 0.35 0.40 0.46 0.48 0.50 0.44 0.50 0.58 0.70 0.86 0.81 0.79 0.83 0.84 0.84 0.89 0.98 1.02 1.10 1.10 1.06 1.13 1.29 1.33 1.38 1.45 1.69 1.85 1.92 2.02 2.05 2.11 2.37 2.57 2.74 2.77
0.37 0.46 0.50 0.45 0.54 0.61 0.60 0.44 0.38 0.47 0.80 0.63 0.65 0.63 0.57 0.62 0.90 1.04 0.87 0.78 0.77 0.89 0.99 0.99 1.06 1.12 1.15 1.19 1.26 1.33 1.46 1.61 1.73 1.82 1.97 2.22 2.41 2.57 2.65 2.72 2.77 2.84 2.95 2.90
0.66 0.63 0.62 0.67 0.79 0.74 0.58 0.51 0.46 0.87 1.21 0.89 0.86 0.84 0.74 0.86 0.98 0.98 0.85 0.79 0.76 0.79 0.94 1.03 1.06 1.16 1.25 1.26 1.42 1.69 1.83 1.91 2.07 2.23 2.31 2.56 2.93 3.14 3.09 3.11 3.00 2.92 2.92 2.94
0.89 0.85 0.85 0.90 1.14 1.22 0.68 0.62 0.97 1.23 1.04 1.05 1.07 1.04 0.97 0.95 1.00 1.02 0.99 0.85 0.80 0.82 0.88 1.00 1.08 1.17 1.36 1.61 1.81 2.10 2.27 2.33 2.40 2.55 2.78 3.05 3.29 3.12 3.02 3.18 3.07 3.07 3.13 3.11
0.98 1.02 1.09 1.18 1.39 1.19 0.84 0.95 1.13 1.12 1.10 1.13 1.11 1.06 0.96 0.92 1.07 1.03 0.98 0.96 0.85 0.83 0.88 0.97 1.07 1.25 1.45 1.76 2.16 2.41 2.50 2.71 2.72 2.76 2.92 3.04 3.11 3.22 3.35 3.41 3.28 3.20 3.19 3.12
1.20 1.07 1.25 1.47 1.54 1.30 1.14 1.12 1.08 1.11 1.13 1.10 1.03 0.98 0.99 0.96 0.98 0.99 0.94 0.92 0.87 0.88 0.97 1.02 1.12 1.33 1.64 1.94 2.29 2.45 2.51 2.57 2.60 2.64 2.66 2.77 2.95 3.08 3.20 3.41 3.41 3.27 3.10 2.99
1.42 1.32 1.57 1.97 2.04 1.89 1.74 1.49 1.31 1.26 1.19 1.22 1.18 1.10 1.07 1.03 0.97 0.92 0.92 0.91 0.92 0.93 1.05 1.15 1.26 1.37 1.53 1.79 2.06 2.19 2.37 2.49 2.66 2.71 2.63 2.56 2.60 2.72 2.87 2.98 3.07 2.99 2.95 2.80
1.59 1.63 1.89 2.26 2.00 1.97 2.12 1.85 1.61 1.54 1.53 1.53 1.48 1.42 1.29 1.20 1.14 1.05 1.00 0.93 0.91 0.91 1.02 1.15 1.29 1.46 1.62 1.78 1.97 2.07 2.27 2.44 2.61 2.63 2.53 2.49 2.46 2.53 2.58 2.59 2.55 2.41 2.30 2.14